Flag for U.S.A. Weather past 2 weeks in Stamford, Connecticut, U.S.A.

Now
59 °F

Partly sunny.


Feels Like: 56 °F
Forecast: 43 / 56 °F
Wind: 17 mph from Northwest

Location: Westchester County Airport


UV Index: 5 (Moderate)

Visibility: 10 mi


Pressure: 29.58 "Hg

Humidity: 39%

Dew point: 34 °F

Location of StamfordLocation

Historic Weather in Stamford

°F

Stamford temperature yesterday

Maximum temperature yesterday: 67 °F (at 12:56 PM)
Minimum temperature yesterday: 43 °F (at 4:56 AM)
Average temperature yesterday: 56 °F

Past Weeks' High & Low Weather Summary

 TemperatureHumidityPressure
High72 °F (Apr 11, 2:56 PM)97% (Apr 15, 3:56 AM)30.74 "Hg (Apr 15, 3:56 AM)
Low29 °F (Apr 16, 5:56 AM)16% (Apr 21, 4:56 PM)29.39 "Hg (Apr 8, 2:56 PM)
Average50 °F57%30.07 "Hg
* Reported Apr 8 2:56 PM — Apr 23 2:56 PM, Stamford, Weather by CustomWeather, © 2014

Note: Actual official high and low records may vary slightly from our data, if they occured in-between our weather recording intervals... More about our weather records

Advertising

Historic Weather Conditions — Data for Previous 24 hours

 ConditionsComfort  
Time TempWeatherWind HumidityBarometerVisibility
2:56 PM
Apr 23
56 °FPartly sunny.25 mph47%29.57 "Hg10 mi
1:56 PM54 °FPartly sunny.18 mph51%29.57 "Hg10 mi
12:56 PM54 °FMostly cloudy.21 mph51%29.56 "Hg10 mi
11:56 AM54 °FPartly sunny.20 mph53%29.56 "Hg10 mi
10:56 AM51 °FPartly sunny.15 mph54%29.56 "Hg10 mi
9:56 AM49 °FBroken clouds.23 mph59%29.56 "Hg10 mi
8:56 AM49 °FPartly sunny.17 mph61%29.55 "Hg10 mi
7:56 AM48 °FBroken clouds.18 mph63%29.55 "Hg10 mi
6:56 AM48 °FPassing clouds.15 mph68%29.53 "Hg10 mi
5:56 AM49 °FPartly cloudy.20 mph71%29.51 "Hg10 mi
4:56 AM52 °FOvercast.15 mph75%29.49 "Hg10 mi
3:56 AM53 °FPassing clouds.15 mph74%29.48 "Hg10 mi
2:56 AM54 °FClear.9 mph80%29.46 "Hg10 mi
1:56 AM56 °FClear.5 mph81%29.48 "Hg6 mi
12:56 AM56 °FClear.3 mph81%29.48 "Hg6 mi
11:56 PM
Apr 22
56 °FClear.No wind81%29.49 "Hg6 mi
10:56 PM58 °FPassing clouds.5 mph78%29.50 "Hg7 mi
9:56 PM59 °FPassing clouds.5 mph75%29.51 "Hg7 mi
8:56 PM59 °FPassing clouds.5 mph78%29.53 "Hg8 mi
7:56 PM56 °FLight rain. Cloudy.No wind81%29.53 "Hg9 mi
6:56 PM59 °FMostly cloudy.3 mph67%29.52 "Hg10 mi
5:56 PM60 °FMostly cloudy.6 mph67%29.53 "Hg10 mi
4:56 PM63 °FLight rain. More clouds than sun.7 mph52%29.55 "Hg10 mi
Weather by CustomWeather, © 2014

See weather overview